Date String (YYYY-MM-DD hh:mm:ss) UTC,Instrument flags,Ambient pressure (hPa),Sample flow (lpm),Bypass flow (lpm),Sample temperature (°C),Ambient temperature (°C),ASC tube jacket temperature (°C),LED temperature (°C),Box temperature (°C),Sample RH (%),Span deviation,Mass concentration (μg/m³),Mass concentration (μg/m³),Mass concentration (μg/m³)
DateTimeUTC,F1_M11,P_M11,Q1_M11,Q2_M11,T1_M11,T2_M11,T3_M11,T4_M11,T5_M11,U1_M11,ZSPAN_M11,X0_M11,X2_M11,X1_M11
2022-12-27 12:00:00,,0819.1,4.97,0.00,21.5,20.1,00.0,30.5,23.3,13.4,0000.0,0000.46,0000.31,0000.24
2022-12-27 12:01:00,,0819.2,4.97,0.00,21.5,20.1,00.0,30.5,23.3,13.4,0000.0,0000.44,0000.29,0000.23
2022-12-27 12:02:00,,0819.2,4.99,0.00,21.5,20.0,00.0,30.5,23.2,13.4,0000.0,0000.44,0000.28,0000.22
2022-12-27 12:03:00,,0819.1,5.02,0.00,21.5,20.0,00.0,30.5,23.2,13.4,0000.0,0000.43,0000.28,0000.21
2022-12-27 12:04:00,,0819.1,5.01,0.00,21.5,19.9,00.0,30.5,23.2,13.4,0000.0,0000.45,0000.28,0000.22
2022-12-27 12:05:00,,0819.0,5.00,0.00,21.5,19.9,00.0,30.5,23.1,13.4,0000.0,0000.50,0000.28,0000.21
2022-12-27 12:06:00,,0819.0,4.98,0.00,21.4,19.9,00.0,30.4,23.1,13.4,0000.0,0000.51,0000.27,0000.20
2022-12-27 12:07:00,,0819.1,4.97,0.00,21.4,19.9,00.0,30.4,23.1,13.5,0000.0,0000.50,0000.26,0000.19
2022-12-27 12:08:00,,0819.1,4.98,0.00,21.4,19.9,00.0,30.4,23.1,13.5,0000.0,0000.45,0000.24,0000.18
2022-12-27 12:09:00,,0819.0,5.01,0.00,21.4,19.9,00.0,30.4,23.1,13.6,0000.0,0000.44,0000.24,0000.17
2022-12-27 12:10:00,,0819.0,5.02,0.00,21.4,20.1,00.0,30.4,23.1,13.6,0000.0,0000.47,0000.25,0000.17
2022-12-27 12:11:00,,0819.0,5.03,0.00,21.4,20.2,00.0,30.4,23.1,13.5,0000.0,0000.48,0000.26,0000.17
2022-12-27 12:12:00,,0819.1,4.99,0.00,21.4,20.3,00.0,30.4,23.2,13.6,0000.0,0000.45,0000.24,0000.17
2022-12-27 12:13:00,,0819.1,4.96,0.00,21.5,20.3,00.0,30.4,23.2,13.3,0000.0,0000.44,0000.24,0000.17
2022-12-27 12:14:00,,0819.1,5.00,0.00,21.5,20.3,00.0,30.4,23.2,13.3,0000.0,0000.43,0000.23,0000.16
2022-12-27 12:15:00,,0819.1,5.01,0.00,21.5,20.4,00.0,30.4,23.2,13.3,0000.0,0000.42,0000.23,0000.16
2022-12-27 12:16:00,,0819.1,5.02,0.00,21.5,20.4,00.0,30.4,23.3,13.3,0000.0,0000.38,0000.22,0000.16
2022-12-27 12:17:00,,0819.1,4.99,0.00,21.5,20.5,00.0,30.4,23.3,13.2,0000.0,0000.36,0000.23,0000.16
2022-12-27 12:18:00,,0819.1,4.98,0.00,21.5,20.5,00.0,30.4,23.3,13.1,0000.0,0000.35,0000.22,0000.16
2022-12-27 12:19:00,,0818.9,4.98,0.00,21.6,20.4,00.0,30.4,23.3,13.1,0000.0,0000.41,0000.21,0000.16
2022-12-27 12:20:00,,0818.9,5.02,0.00,21.6,20.4,00.0,30.4,23.4,13.5,0000.0,0000.49,0000.22,0000.16
2022-12-27 12:21:00,,0819.0,5.03,0.00,21.6,20.5,00.0,30.4,23.3,13.3,0000.0,0000.47,0000.20,0000.16
2022-12-27 12:22:00,,0819.0,5.00,0.00,21.6,20.5,00.0,30.4,23.3,13.2,0000.0,0000.45,0000.19,0000.15
2022-12-27 12:23:00,,0818.9,4.98,0.00,21.6,20.5,00.0,30.5,23.4,13.1,0000.0,0000.45,0000.19,0000.16
2022-12-27 12:24:00,,0818.9,4.98,0.00,21.6,20.6,00.0,30.5,23.4,13.1,0000.0,0000.49,0000.20,0000.15
2022-12-27 12:25:00,,0818.8,4.99,0.00,21.6,20.6,00.0,30.5,23.4,13.2,0000.0,0000.51,0000.21,0000.15
2022-12-27 12:26:00,,0818.8,5.01,0.00,21.7,20.6,00.0,30.5,23.5,13.1,0000.0,0000.51,0000.21,0000.16
2022-12-27 12:27:00,,0818.8,5.04,0.00,21.7,20.7,00.0,30.5,23.5,13.0,0000.0,0000.49,0000.20,0000.15
2022-12-27 12:28:00,,0818.9,5.02,0.00,21.7,20.7,00.0,30.5,23.5,13.0,0000.0,0000.46,0000.19,0000.15
2022-12-27 12:29:00,,0818.9,4.99,0.00,21.7,20.7,00.0,30.5,23.5,12.9,0000.0,0000.46,0000.19,0000.15
2022-12-27 12:30:00,,0818.8,4.97,0.00,21.7,20.7,00.0,30.5,23.6,12.8,0000.0,0000.37,0000.19,0000.15
2022-12-27 12:31:00,,0818.8,4.99,0.00,21.8,20.7,00.0,30.5,23.6,12.8,0000.0,0000.28,0000.18,0000.15
2022-12-27 12:32:00,,0818.8,5.03,0.00,21.8,20.7,00.0,30.6,23.6,12.7,0000.0,0000.29,0000.18,0000.15
2022-12-27 12:33:00,,0818.7,5.02,0.00,21.8,20.7,00.0,30.6,23.6,12.7,0000.0,0000.32,0000.20,0000.15
2022-12-27 12:34:00,,0818.8,5.00,0.00,21.8,20.8,00.0,30.6,23.7,12.7,0000.0,0000.33,0000.21,0000.15
2022-12-27 12:35:00,,0818.7,4.96,0.00,21.8,20.8,00.0,30.6,23.7,12.6,0000.0,0000.31,0000.21,0000.16
2022-12-27 12:36:00,,0818.8,4.99,0.00,21.9,20.8,00.0,30.6,23.7,12.6,0000.0,0000.30,0000.20,0000.16
2022-12-27 12:37:00,,0818.8,5.03,0.00,21.9,20.8,00.0,30.6,23.7,12.6,0000.0,0000.29,0000.20,0000.16
2022-12-27 12:38:00,,0818.8,5.02,0.00,21.9,20.8,00.0,30.7,23.8,12.8,0000.0,0000.30,0000.21,0000.17
2022-12-27 12:39:00,,0818.8,4.99,0.00,21.9,20.8,00.0,30.7,23.8,15.0,0000.0,0000.78,0000.59,0000.50
2022-12-27 12:40:00,,0818.8,4.99,0.00,21.9,20.7,00.0,30.7,23.7,15.1,0000.0,0001.32,0001.06,0000.96
2022-12-27 12:41:00,,0818.8,5.00,0.00,21.9,20.7,00.0,30.7,23.7,14.2,0000.0,0001.72,0001.41,0001.31
2022-12-27 12:42:00,,0818.8,5.02,0.00,21.9,20.7,00.0,30.7,23.7,14.0,0000.0,0001.84,0001.51,0001.42
2022-12-27 12:43:00,,0818.7,5.02,0.00,21.9,20.6,00.0,30.7,23.7,15.3,0000.0,0002.46,0002.03,0001.91
2022-12-27 12:44:00,,0818.6,5.01,0.00,21.9,20.6,00.0,30.7,23.7,15.5,0000.0,0003.34,0002.79,0002.68
2022-12-27 12:45:00,,0818.5,4.98,0.00,21.9,20.6,00.0,30.7,23.7,14.9,0000.0,0003.81,0003.16,0003.07
2022-12-27 12:46:00,,0818.4,4.98,0.00,21.9,20.7,00.0,30.7,23.7,14.9,0000.0,0004.25,0003.35,0003.28
2022-12-27 12:47:00,,0818.4,4.99,0.00,21.9,20.7,00.0,30.7,23.7,14.7,0000.0,0004.61,0003.52,0003.43
2022-12-27 12:48:00,,0818.5,5.01,0.00,21.9,20.7,00.0,30.7,23.8,14.2,0000.0,0004.84,0003.61,0003.52
2022-12-27 12:49:00,,0818.6,5.00,0.00,21.9,20.8,00.0,30.7,23.8,14.1,0000.0,0004.91,0003.64,0003.56
2022-12-27 12:50:00,,0818.7,4.99,0.00,21.9,20.8,00.0,30.7,23.8,13.3,0000.0,0004.48,0003.46,0003.41
2022-12-27 12:51:00,,0818.7,4.98,0.00,21.9,20.7,00.0,30.8,23.7,14.1,0000.0,0004.02,0003.24,0003.18
2022-12-27 12:52:00,,0818.8,4.99,0.00,21.9,20.5,00.0,30.8,23.6,15.4,0000.0,0004.27,0003.36,0003.29
2022-12-27 12:53:00,,0818.7,5.04,0.00,21.8,20.3,00.0,30.8,23.5,15.5,0000.0,0004.85,0003.62,0003.56
2022-12-27 12:54:00,,0818.6,5.01,0.00,21.8,20.1,00.0,30.7,23.4,15.4,0000.0,0004.89,0003.63,0003.58
2022-12-27 12:55:00,,0818.7,5.02,0.00,21.8,20.0,00.0,30.7,23.5,14.5,0000.0,0004.33,0003.37,0003.32
2022-12-27 12:56:00,,0818.7,4.99,0.00,21.7,20.0,00.0,30.7,23.5,14.5,0000.0,0004.08,0003.25,0003.20
2022-12-27 12:57:00,,0818.7,4.99,0.00,21.7,20.0,00.0,30.7,23.4,15.2,0000.0,0003.92,0003.19,0003.15
2022-12-27 12:58:00,,0818.7,5.02,0.00,21.7,19.9,00.0,30.7,23.3,15.3,0000.0,0004.02,0003.25,0003.20
2022-12-27 12:59:00,,0818.7,5.02,0.00,21.7,19.9,00.0,30.7,23.3,15.0,0000.0,0004.15,0003.33,0003.28
